Location: ??????
(38.3184°N, 23.6932°E)
Time: 01:48:12
(UTC+00:00)

GPS 2-04 Rocket1 - Pass Details

Date: 16 October 2021
Orbit: 412 x 536 km, 35.6° (Epoch: 04 December)

Event Time Altitude Azimuth Distance (km) Brightness Sun altitude
Rises 16:26:49 0° 270° (W) 2,562 8.6 -8.8°
Reaches altitude 10° 16:29:07 10° 265° (W) 1,656 7.0 -9.2°
Maximum altitude 16:32:45 46° 191° (S) 631 3.2 -10.0°
Enters shadow 16:35:58 12° 118° (ESE) 1,475 4.5 -10.6°
